Location: Casilda
(33.0440°S, 61.1680°W)
Time: 14:21:33
(UTC-03:00)

ISS - Pass Details

Date: 15 April 2021
Orbit: 418 x 422 km, 51.6° (Epoch: 17 April)

Event Time Altitude Azimuth Distance (km) Brightness Sun altitude
Rises 20:48:35 0° 314° (NW) 2,359 0.6 -27.2°
Reaches altitude 10° 20:50:40 10° 313° (NW) 1,502 -0.5 -27.7°
Enters shadow 20:51:05 13° 313° (NW) 1,330 -0.8 -27.8°
